星链-2009 (STARLINK-2009 )

导读 | 豆包AI

STARLINK-2009是美国太空探索技术公司SpaceX于2021年2月16日发射的星链卫星,属于星链(Starlink)低轨互联网星座的组网卫星之一,运行在约550公里高度的近地轨道。它为全球偏远、传统网络覆盖薄弱地区提供高速卫星互联网接入,星链星座截至2025年底已在轨超9000颗卫星,服务覆盖全球上百个国家和地区,同时也支持应急通信、军事通信等多元应用场景,推动全球卫星互联网普及。

基本信息
目录编号:
47633
目录名称:
STARLINK-2009
国际标识:
2021-012P
轨道中心:
EARTH
卫星名称:
星链-2009
卫星全名:
星链-2009 (STARLINK-2009 )
卫星状态:
已陨落 最后检测时间 2025-04-07
发射日期:
2021-02-16 UTC
国别 :
美国 (US)
星等 :
--
轨道信息
数据来源 国际轨道数据
星历时间: 2025-04-07T06:52:59+0800
轨道信息已过期388天
半长轴: 6523.997km
偏心率: 0.0004575
轨道倾角: 53.016°
近地点辐角 320.693°
升交点赤经 89.214°
平近点角 125.705°
近地点: 142.877km
远地点: 148.847km
周期: 87.404分钟
每日圈数: 16.475255
详细信息
固有亮度:
5
最大亮度:
2.5
卫星平台:
Starlink V1.0
覆盖范围:
全球
运营商:
太空探索技术公司
运营商所在国:
美国
制造商(研发单位):
太空探索技术公司
制造商所在国:
美国
使用方式:
暂无
卫星简介
星链(Starlink)计划是由太空探索技术公司(SpaceX)提出的一个巨型低轨卫星互联网星座项目,计划在2019年至2024年间在太空搭建由约1.2万颗卫星组成的“星链”网络,其中1584颗将部署在地球上空550千米处的近地轨道,并从2020年开始工作。该卫星仍在工作。